Lexington Weather

Lexington, Massachusetts, USA

56°F
10/22/2020 7:46pm 
  • Lexington Conditions: Mostly cloudy
  • Temperature: 55.8°F / 13.2°CColder 0.3°F than last hour.
  • Dew Point: 54.3°FDecreased 0.2°Fsince last hour.
  • Relative Humidity: 95%Increased 1.0% since last hour.
  • Wind: Calm, 10-min avg: Calm, gust: 2 mph
  • Barometer: 30.22 in Steady
  • Visibility: 7 miles
  • Rain Today: 0.00 in
  •   

Regional Weather Roundup
for Boston / Norton, MA

        
000
ASUS41 KBOX 171204
RWRBOX

REGIONAL WEATHER ROUNDUP
NATIONAL WEATHER SERVICE BOSTON/NORTON MA
800 AM EDT SAT OCT 17 2020

NOTE:  "FAIR" INDICATES FEW OR NO CLOUDS BELOW 12,000 FEET WITH NO 
SIGNIFICANT WEATHER AND/OR OBSTRUCTIONS TO VISIBILITY.

MAZALL-171300-
EASTERN MASSACHUSETTS
  
CITY           SKY/WX    TMP DP  RH WIND       PRES   REMARKS
BOSTON         LGT RAIN  43  41  93 NW12      30.08F                  
6HR MIN TEMP:  43; 6HR MAX TEMP:  49; 6HR PCP:  0.95;                

BEVERLY        LGT RAIN  44  41  89 NW13      30.06F                  
LAWRENCE       LGT RAIN  42  40  92 NW8       30.10F                  
BEDFORD        RAIN      42  40  92 N13       30.07F                  
BLUE HILL        N/A     40  39  97 NW15G24   30.06F WCI  32          
NORWOOD        LGT RAIN  45  40  82 N9        30.08F                  
MARSHFIELD     DRIZZLE   46  45  93 VRB6G17   30.07R                  
PLYMOUTH       LGT RAIN  45  43  93 NW10G16   30.06S                  
TAUNTON        LGT RAIN  46  43  89 VRB5      30.07F                  
NEW BEDFORD    CLOUDY    46  44  93 VRB6      30.06S                  
$$

MAZALL-171300-
CAPE COD AND THE ISLANDS
  
CITY           SKY/WX    TMP DP  RH WIND       PRES   REMARKS
FALMOUTH       LGT RAIN  45  45 100 NW14      30.06R                  
HYANNIS        CLOUDY    49  46  90 NW14G31   30.03R                  
CHATHAM        CLOUDY    50  46  86 NW12G24   30.03F                  
PROVINCETOWN   CLOUDY    49  47  93 NW21G33   30.06R                  
NANTUCKET      LGT RAIN  50  47  89 NW30G41   30.04R                  
MARTHAS VNYRD  CLOUDY    48  45  89 N17G26    30.06S                  
$$
 
MAZALL-171300-
CENTRAL AND WESTERN MASSACHUSETTS
  
CITY           SKY/WX    TMP DP  RH WIND       PRES   REMARKS
WORCESTER      LGT RAIN  39  35  86 W13       30.11R WCI  31          
6HR MIN TEMP:  38; 6HR MAX TEMP:  46; 6HR PCP:  0.70;                

FITCHBURG      LGT RAIN  40  38  93 W7        30.12F                  
ORANGE         LGT RAIN  40  37  89 NW7       30.16R                  
SPRINGFIELD    MOCLDY    41  38  89 N7        30.16R                  
WESTFIELD      CLEAR     41  41 100 CALM      30.17R                  
NORTH ADAMS    CLOUDY    44  38  79 SW9       30.18R                  
PITTSFIELD     CLOUDY    42  39  89 NW7       30.15R                  
$$
 
RIZALL-171300-
RHODE ISLAND
  
CITY           SKY/WX    TMP DP  RH WIND       PRES   REMARKS
PROVIDENCE     LGT RAIN  44  42  93 N14G23    30.07F                  
6HR MIN TEMP:  44; 6HR MAX TEMP:  50; 6HR PCP:  1.02;                

NEWPORT        LGT RAIN  44  42  93 N14G28    30.05F                  
BLOCK ISLAND   LGT RAIN  46  43  89 NW12      30.14R                  
SMITHFIELD     LGT RAIN  41  41 100 N15G24      N/A                   
WESTERLY       CLOUDY    44  41  89 VRB7      30.14R                  
$$
 
CTZALL-171300-
CONNECTICUT
  
CITY           SKY/WX    TMP DP  RH WIND       PRES   REMARKS
BRADLEY INTL   PTCLDY    43  39  86 CALM      30.17R                  
6HR MIN TEMP:  41; 6HR MAX TEMP:  46; 6HR PCP:  0.38;                

HARTFORD       PTCLDY    44  39  82 NW7       30.19R                  
BRIDGEPORT     CLEAR     46  42  86 W7        30.22R                  
DANBURY        CLEAR     41  39  93 W5        30.23R                  
GROTON         MOCLDY    44  41  89 W8        30.16R                  
NEW HAVEN      CLOUDY    47  44  90 CALM      30.21R                  
CHESTER        NOT AVBL                                               
MERIDEN        CLOUDY    44  40  85 NW7       30.20R                  
WILLIMANTIC    MOCLDY    42  39  89 NW14      30.15R                  
OXFORD         PTCLDY    41  41 100 NW5       30.20R                  
$$

MEZ002-015-021-024-NHZ003-005-008-011-012-014-VTZ005-008-171300-
NORTHERN NEW ENGLAND
  
CITY           SKY/WX    TMP DP  RH WIND       PRES   REMARKS
PORTLAND ME    LGT RAIN  44  42  93 N18G24    30.06R FOG              
6HR MIN TEMP:  44; 6HR MAX TEMP:  52; 6HR PCP:  0.94;                

BANGOR ME      LGT RAIN  49  46  90 NW14      29.98R VSB 1            
CONCORD NH     LGT RAIN  38  36  92 N8        30.07F                  
MANCHESTER NH  LGT RAIN  41  37  86 N14       30.06F                  
NASHUA NH      LGT RAIN  40  40 100 NW8       30.09F                  
PORTSMOUTH NH  LGT RAIN  44  41  92 NW12      30.05  FOG              
JAFFREY NH     MIX PCPN  37  34  89 W5        30.12R                  
KEENE NH       LGT RAIN  39  37  92 N8        30.16R                  
BURLINGTON VT  CLOUDY    44  40  85 N6        30.19R                  
MT. WASHINGTON NOT AVBL                                               
$$

NYZ052-076-171300-
EASTERN NEW YORK
  
CITY           SKY/WX    TMP DP  RH WIND       PRES   REMARKS
ALBANY         PTCLDY    41  35  79 W13       30.22R                  
6HR MIN TEMP:  39; 6HR MAX TEMP:  43;                                

NEW YORK CITY  PTCLDY    49  37  63 NW9       30.23R                  
6HR MIN TEMP:  49; 6HR MAX TEMP:  50; 6HR PCP:  0.01;                

$$
 
ANZALL-171300-
MARINE OBSERVATIONS
  
STATION/POSITION TIME  TEMP    WIND        PRES    VSBY  WAVE
                       AIR SEA DIR/SP/G                  HT/PER
                 (UTC) (F)     (DEG/KT/KT) (MB)    (MI)  (FT/S)
BOSTON BUOY      1150   48 57  320/ 21/ 25 1016.7S         4/ 4
BUZZARDS BAY     1100          340/ 28/ 29 1018.7R
NANTUCKET SOUND  1150      62  320/ 25/ 31   N/A           4/ 4
MASS BAY-STELLWA 1104   49 58  320/ 21/ 27 1017.1R  1 7/8  4/ 4
ISLE OF SHOALS   1100   46     310/ 21/ 25 1017.0R
S OF BLOCK IS    1126      63                N/A           7/ 6
$$

......................KEY.........................
  SKY/WX - SKY CONDITION/PRESENT WEATHER
  TMP    - TEMPERATURE IN FAHRENHEIT
  DWPT   - DEWPOINT IN FAHRENHEIT
  RH     - RELATIVE HUMIDITY IN PERCENT
  WIND   - DIRECTION AND SPEED IN MPH
  PRES   - MEAN SEA LEVEL PRESSURE IN INCHES OF HG
  WCI    - WIND CHILL INDEX
  VSB    - VISIBILITY IN MILES
  HX     - HEAT INDEX
  TC     - TEMPERATURE IN CELSIUS
  VRB    - VARIABLE WIND DIRECTION
  N/A    - NOT AVAILABLE
  
      

Other recent Regional Weather Roundups

Thu Oct 22, 7:05pm

Thu Oct 22, 6:04pm

Thu Oct 22, 5:04pm

Thu Oct 22, 4:05pm

Thu Oct 22, 3:04pm

Thu Oct 22, 2:05pm

Thu Oct 22, 1:04pm

Thu Oct 22, 12:04pm

Thu Oct 22, 11:04am

Thu Oct 22, 10:05am

Thu Oct 22, 9:04am

Thu Oct 22, 8:05am

Thu Oct 22, 7:04am

Thu Oct 22, 6:04am

Thu Oct 22, 5:04am

Thu Oct 22, 4:04am

Thu Oct 22, 3:04am

Thu Oct 22, 2:04am

Thu Oct 22, 1:04am

Thu Oct 22, 12:04am

Wed Oct 21, 11:05pm

Wed Oct 21, 10:04pm

Wed Oct 21, 9:04pm

Wed Oct 21, 8:04pm

Wed Oct 21, 7:04pm

Wed Oct 21, 6:04pm

Wed Oct 21, 5:05pm

Wed Oct 21, 4:04pm

Wed Oct 21, 3:04pm

Wed Oct 21, 2:05pm

Wed Oct 21, 1:04pm

Wed Oct 21, 12:04pm

Wed Oct 21, 11:04am

Wed Oct 21, 10:04am

Wed Oct 21, 9:04am

Wed Oct 21, 8:04am

Wed Oct 21, 7:04am

Wed Oct 21, 6:04am

Wed Oct 21, 5:04am

Wed Oct 21, 4:04am

Wed Oct 21, 3:04am

Wed Oct 21, 2:04am

Wed Oct 21, 1:04am

Wed Oct 21, 12:04am

Tue Oct 20, 11:05pm

Tue Oct 20, 10:04pm

Tue Oct 20, 9:04pm

Tue Oct 20, 8:05pm

Tue Oct 20, 7:04pm

Tue Oct 20, 6:04pm

Tue Oct 20, 5:05pm

Tue Oct 20, 4:04pm

Tue Oct 20, 3:05pm

Tue Oct 20, 2:07pm

Tue Oct 20, 1:04pm

Tue Oct 20, 12:04pm

Tue Oct 20, 11:04am

Tue Oct 20, 10:05am

Tue Oct 20, 9:04am

Tue Oct 20, 8:04am

Tue Oct 20, 7:04am

Tue Oct 20, 6:04am

Tue Oct 20, 5:04am

Tue Oct 20, 4:04am

Tue Oct 20, 3:04am

Tue Oct 20, 2:04am

Tue Oct 20, 1:04am

Tue Oct 20, 12:04am

Mon Oct 19, 11:04pm

Mon Oct 19, 10:04pm

Mon Oct 19, 9:04pm

Mon Oct 19, 8:04pm

Mon Oct 19, 7:04pm

Mon Oct 19, 6:04pm

Mon Oct 19, 5:04pm

Mon Oct 19, 4:04pm

Mon Oct 19, 3:04pm

Mon Oct 19, 2:04pm

Mon Oct 19, 1:05pm

Mon Oct 19, 12:04pm

Mon Oct 19, 11:04am

Mon Oct 19, 10:04am

Mon Oct 19, 9:04am

Mon Oct 19, 8:04am

Mon Oct 19, 7:04am

Mon Oct 19, 6:04am

Mon Oct 19, 5:04am

Mon Oct 19, 4:04am

Mon Oct 19, 3:04am

Mon Oct 19, 2:04am

Mon Oct 19, 1:04am

Mon Oct 19, 12:05am

Sun Oct 18, 11:04pm

Sun Oct 18, 10:04pm

Sun Oct 18, 9:04pm

Sun Oct 18, 8:04pm

Sun Oct 18, 7:05pm

Sun Oct 18, 6:04pm

Sun Oct 18, 5:05pm

Sun Oct 18, 4:05pm

Sun Oct 18, 3:04pm

Sun Oct 18, 2:05pm

Sun Oct 18, 1:04pm

Sun Oct 18, 12:04pm

Sun Oct 18, 11:04am

Sun Oct 18, 10:04am

Sun Oct 18, 9:04am

Sun Oct 18, 8:04am

Sun Oct 18, 7:04am

Sun Oct 18, 6:04am

Sun Oct 18, 5:04am

Sun Oct 18, 4:04am

Sun Oct 18, 3:04am

Sun Oct 18, 2:04am

Sun Oct 18, 1:04am

Sun Oct 18, 12:04am

Sat Oct 17, 11:05pm

Sat Oct 17, 10:04pm

Sat Oct 17, 9:04pm

Sat Oct 17, 8:04pm

Sat Oct 17, 7:04pm

Sat Oct 17, 6:04pm

Sat Oct 17, 5:05pm

Sat Oct 17, 4:04pm

Sat Oct 17, 3:04pm

Sat Oct 17, 2:05pm

Sat Oct 17, 1:05pm

Sat Oct 17, 12:04pm

Sat Oct 17, 11:05am

Sat Oct 17, 10:04am

Sat Oct 17, 9:04am

Sat Oct 17, 7:04am

Sat Oct 17, 6:04am

Sat Oct 17, 5:04am

Sat Oct 17, 4:04am

Sat Oct 17, 3:04am

Sat Oct 17, 2:04am

Sat Oct 17, 1:05am

Sat Oct 17, 12:04am

Fri Oct 16, 11:05pm

Fri Oct 16, 10:04pm

Fri Oct 16, 9:05pm

Fri Oct 16, 8:04pm

Fri Oct 16, 7:05pm

Fri Oct 16, 6:04pm

Fri Oct 16, 5:04pm

Fri Oct 16, 4:05pm

Fri Oct 16, 3:04pm

Fri Oct 16, 2:04pm

Fri Oct 16, 1:04pm

Fri Oct 16, 12:04pm

Fri Oct 16, 11:05am

Fri Oct 16, 10:04am

Fri Oct 16, 9:04am

Fri Oct 16, 8:04am

Fri Oct 16, 7:04am

Fri Oct 16, 6:04am

Fri Oct 16, 5:04am

Fri Oct 16, 4:04am

Fri Oct 16, 3:04am

Fri Oct 16, 2:04am

Fri Oct 16, 1:04am

Fri Oct 16, 12:04am

Thu Oct 15, 11:04pm

Thu Oct 15, 10:04pm

Thu Oct 15, 9:05pm

Thu Oct 15, 8:04pm

Meta data:

ID: 93b9ef0c-cafb-46e1-8c25-8ea1cf4625fa
Link: https://api.weather.gov/products/93b9ef0c-cafb-46e1-8c25-8ea1cf4625fa